AirNav   Phillips 66 Aviation Fuel
 
 1577 users online  

KLVN Airlake Airport
Minneapolis, Minnesota, USA

GOING TO MINNEAPOLIS?


FAA INFORMATION EFFECTIVE 19 JULY 2018

Location

FAA Identifier: LVN
Lat/Long: 44-37-40.3000N / 093-13-41.1000W
44-37.671667N / 093-13.685000W
44.6278611 / -93.2280833
(estimated)
Elevation: 960.6 ft. / 292.8 m (surveyed)
Variation: 03E (1995)
From city: 22 miles S of MINNEAPOLIS, MN
Time zone: UTC -5 (UTC -6 during Standard Time)
Zip code: 55044

Airport Operations

Airport use: Open to the public
Activation date: 12/1966
Control tower: no
ARTCC: MINNEAPOLIS CENTER
FSS: PRINCETON FLIGHT SERVICE STATION
NOTAMs facility: LVN (NOTAM-D service available)
Attendance: MON-FRI 0800-1800, ALL SAT-SUN 0800-1700
Pattern altitude: 1760.6 ft. MSL
Wind indicator: lighted
Segmented circle: no
Lights: ACTVT MALSR RWY 30; REIL RWY 12; PAPI RWY 12, 30; HIRL RWY 12/30 PRESET TO LOW SS-SR: INCR INTST AND ACTVT - CTAF.
Beacon: white-green (lighted land airport)
Operates sunset to sunrise.

Airport Communications

CTAF/UNICOM: 123.0
WX AWOS-3: 118.0 (952-469-5850)
MINNEAPOLIS APPROACH: 134.7
MINNEAPOLIS DEPARTURE: 134.7
CLEARANCE DELIVERY: 118.95
WX AWOS-3 at SYN (13 nm SE): 119.35 (507-664-3806)
WX ASOS at MSP (15 nm N): PHONE 612-713-4174
WX ASOS at FCM (15 nm NW): PHONE 952-941-4156
WX AWOS-3 at SGS (16 nm NE): 119.425 (651-457-8120)
WX AWOS-3 at FBL (18 nm S): 111.2 (507-332-2505)
WX ASOS at STP (20 nm N): PHONE 651-298-1410
  • COMMUNICATIONS PROVIDED BY PRINCETON RADIO ON FREQ 122.1R (FARMINGTON RCO).

Nearby radio navigation aids

VOR radial/distance  VOR name  Freq  Var
FGTr259/2.0FARMINGTON VORTAC115.7006E
FCMr141/15.0FLYING CLOUD VOR/DME117.7001E
MSPr177/16.1MINNEAPOLIS VOR/DME115.3002E
FOWr012/26.1HALFWAY VOR/DME111.2002E
GEPr163/31.7GOPHER VORTAC117.3006E
MKTr043/38.2MANKATO VOR/DME110.8007E

 
NDB name  Hdg/Dist  Freq  Var  ID
HOPEY217/19.140003EPPI .--. .--. ..
GLENCOE099/37.540703EGYL --. -.-- .-..

Airport Services

Fuel available: 100LL JET-A
JET A FUEL SELF SERVE NOT AVBL.
100LL SELF SERVICE FUEL AVBL 24 HRS WITH CREDIT CARD.
Parking: hangars and tiedowns
Airframe service: MAJOR
Powerplant service: MAJOR
Bottled oxygen: LOW

Runway Information

Runway 12/30

Dimensions: 4099 x 75 ft. / 1249 x 23 m
REPAINTED. DISPLACEMENT ON 'NW' END NOW TAXIWAY.
Surface: asphalt, in good condition
Weight bearing capacity: 
Single wheel: 31.0
Double wheel: 47.0
Runway edge lights: high intensity
RUNWAY 12  RUNWAY 30
Latitude: 44-37.827068N44-37.516258N
Longitude: 093-14.104925W093-13.266448W
Elevation: 960.6 ft.951.4 ft.
Traffic pattern: rightleft
Runway heading: 114 magnetic, 117 true294 magnetic, 297 true
Displaced threshold: no392 ft.
Declared distances: LDA:4099LDA:3707
Markings: nonprecision, in good conditionprecision, in good condition
Visual slope indicator: 4-light PAPI on left (3.00 degrees glide path)4-light PAPI on right (3.00 degrees glide path)
Approach lights: MALSR: 1,400 foot medium intensity approach lighting system with runway alignment indicator lights
Runway end identifier lights: yes
Touchdown point: yes, no lightsyes, no lights
Instrument approach: ILS
Obstructions: 31 ft. rr, 679 ft. from runway, 366 ft. right of centerline, 15:1 slope to clear
RWY 12 HAS 9 FT PILE OF DIRT 192 FT FROM THE RWY END AND 345 FT R.
25 ft. road, 801 ft. from runway, 315 ft. right of centerline, 24:1 slope to clear
RY 30 47:1 TO DSPLCD THLD.

Airport Ownership and Management from official FAA records

Ownership: Publicly-owned
Owner: METRO ARPTS CMSN
6040 28TH AVE SO.
MINNEAPOLIS, MN 55450
Phone 612-726-8100
Manager: MIKE WILSON
8140 220TH STREET W.
LAKEVILLE, MN 55044
Phone 763-537-2058
MIKE. WILSON@MSPMAC.ORG. MAINT SUPVR 612-919-3509, MON-FRI 0600-1430.

Airport Operational Statistics

Aircraft based on the field: 133
Single engine airplanes: 123
Multi engine airplanes: 6
Jet airplanes: 4
    
Aircraft operations: avg 94/day *
55% transient general aviation
40% local general aviation
4% air taxi
<1% military
* for 12-month period ending 30 September 2017

Additional Remarks

DEER, BIRDS & WILDLIFE ON & INVOF ARPT.
ULTRALIGHT OPNS PROHIBITED.
HANGARS 400 FT NORTH FM CENTERLINE IN PRIMARY SURFACE.
FOR NOISE ABATEMENT PROCS, WWW.MACNOISE.COM/PILOTS. ACFT PLS FLW VOLUNTARY NOISE ABATEMENT PROCS.
RY 30 DSGND AS CALM WND RY.

Instrument Procedures

NOTE: All procedures below are presented as PDF files. If you need a reader for these files, you should download the free Adobe Reader.

NOT FOR NAVIGATION. Please procure official charts for flight.
FAA instrument procedures published for use from 19 July 2018 at 0901Z to 16 August 2018 at 0900Z.

 
STARs - Standard Terminal Arrivals
AGUDE FIVE   download (249KB)
ENCEE TWO (RNAV)   download (153KB)
GOPHER ONE   download (271KB)
TWOLF THREE   2 pages: [1] [2] (295KB)
 
IAPs - Instrument Approach Procedures
ILS OR LOC RWY 30 **CHANGED**   download (211KB)
RNAV (GPS) RWY 12 **CHANGED**   download (208KB)
RNAV (GPS) RWY 30 **CHANGED**   download (274KB)
VOR RWY 12 **CHANGED**   download (214KB)
NOTE: Special Alternate Minimums apply **CHANGED**   download (81KB)
NOTE: Special Take-Off Minimums/Departure Procedures apply   download (156KB)

Other nearby airports with instrument procedures:

KMSP - Minneapolis-St Paul International/Wold-Chamberlain Airport (15 nm N)
KFCM - Flying Cloud Airport (15 nm NW)
KSGS - South St Paul Municipal Airport-Richard E Fleming Field (16 nm NE)
KFBL - Faribault Municipal Airport-Liz Wall Strohfus Field (18 nm S)
KSTP - St. Paul Downtown Airport / Holman Field (20 nm N)
 
Loc | Ops | Rwys | IFR | FBO | Links
Com | Nav | Svcs | Stats | Notes


 
Area around KLVN (Airlake Airport)
 
Road maps at: MapQuest Bing Google
 
Aerial photo
WARNING: Photo may not be current or correct
Aerial photo of KLVN (Airlake Airport)
Photo taken 24-Nov-2012

Do you have a better or more recent aerial photo of Airlake Airport that you would like to share? If so, please send us your photo.

 
Sectional chart

 
Airport distance calculator
Flying to Airlake Airport? Find the distance to fly.

From to KLVN

Sunrise and sunset
Times for 23-Jul-2018
 Local
(UTC-5)
 Zulu
(UTC)
Morning civil twilight05:1610:16
Sunrise05:5110:51
Sunset20:4801:48
Evening civil twilight21:2302:23

Current date and time
Zulu (UTC)  23-Jul-2018 16:00:17
Local (UTC-5)  23-Jul-2018 11:00:17
 
METAR
KLVN 231535Z AUTO 35006KT 10SM CLR 26/20 A3006 RMK AO2
KSYN 
13nm SE 
231535Z AUTO 34004KT 10SM CLR 24/19 A3005 RMK AO2 T02410188
KSGS 
14nm N 
231535Z AUTO 31005KT 10SM CLR 25/17 A3005 RMK AO2 T02470173
KMSP 
15nm N 
231553Z VRB06KT 9SM FEW030 SCT100 26/19 A3005 RMK AO2 SLP172 T02610189
KFCM 
16nm NW 
231553Z 29005KT 10SM SCT025 26/18 A3005 RMK AO2 SLP171 T02560183
KFBL 
19nm S 
231535Z AUTO 29005KT 10SM CLR 24/19 A3007 RMK AO2
KSTP 
20nm N 
231553Z 34008KT 10SM CLR 26/18 A3005 RMK AO2 SLP169 T02560178
TAF
KMSP 
15nm N 
231123Z 2312/2418 00000KT P6SM FEW250 FM231400 00000KT P6SM SCT060 BKN110 FM231700 31006KT P6SM VCSH SCT040 BKN110 FM232100 31007KT P6SM SCT040 BKN080 FM240800 VRB04KT P6SM SKC
NOTAMs
Click for the latest NOTAMs
NOTAMs are issued by the DoD/FAA and will open in a separate window not controlled by AirNav.

 

 
 

FBO, Fuel Providers, and Aircraft Ground Support

  
 Business Name 
 
 Contact 
 
 Services / Description 
 
Fuel Prices
 
Comments
  
 Waypoint Flight Services
952-469-4414
954-908-7880
[web site]
[email]
Airport management, Aviation fuel, Aircraft parking (ramp or tiedown), Hangars, Hangar leasing / sales, Passenger terminal and lounge, Flight training, ...
 
CAA Preferred FBO   AVTRIP  
 
More info about Waypoint Flight Services
Avfuel
100LL Jet A
FS $5.09 $5.30 
SS $5.09 --- 
 Updated 16-Jul-2018
 
   2 read write
FS=Full service
SS=Self service
Update Fuel Prices
 

Aviation Businesses, Services, and Facilities

  
 Business Name 
 
 Contact 
 
 Services / Description 
 
Distance
 
Comments
  
Air Trek North 952-594-1184
[web site]
[email]
Oxygen service, Flight training, Aircraft rental, Aircraft maintenance, Internet access

More info about Air Trek North
on airport  
   write
 

Would you like to see your business listed on this page?

 If your business provides an interesting product or service to pilots, flight crews, aircraft, or users of the Airlake Airport, you should consider listing it here.  To start the listing process, click on the button below
 
Add a business
 

Other Pages about Airlake Airport

www.metroairports.org/...
 
Update a link
 
Copyright © AirNav, LLC. All rights reserved. Privacy Policy  Contact